Regional Weather Roundup
Issued by NWS Newport/Morehead, NC

Current Version | Previous Version | Graphics & Text | Print | Product List | Glossary Off
Versions: 1 2 3 4 5 6 7 8 9 10 11 12 13 14 15 16 17 18 19 20 21 22 23 24 25 26 27 28 29 30 31 32 33 34 35 36 37 38 39 40 41 42 43 44 45 46 47 48 49 50

891
ASUS42 KMHX 252226
RWRMHX
WEATHER ROUNDUP FOR EASTERN NORTH CAROLINA
NATIONAL WEATHER SERVICE NEWPORT/MOREHEAD CITY NC
600 PM EDT WED APR 25 2018

NOTE: "FAIR" INDICATES FEW OR NO CLOUDS BELOW 12,000 FEET
WITH NO SIGNIFICANT WEATHER AND/OR OBSTRUCTIONS TO VISIBILITY

NCZ015>017-031-032-045>047-102-103-252300-
NORTH COAST

CITY           SKY/WX    TMP DP  RH WIND       PRES   REMARKS
EDENTON        FAIR      72  60  67 NW6       29.69R
ELIZABETH CITY FAIR      67  62  84 SE5       29.67S
KITTY HAWK     LGT RAIN  62  60  93 CALM      29.68S
MANTEO         PTSUNNY   65  62  87 NE6       29.70S

$$

NCZ045>047-081-094-103-104-252300-
CENTRAL COAST

CITY           SKY/WX    TMP DP  RH WIND       PRES   REMARKS
FRISCO         FAIR      70  61  73 SW17G25   29.70R

$$

NCZ095-097-098-100-101-252300-
SOUTHERN COAST

CITY           SKY/WX    TMP DP  RH WIND       PRES   REMARKS
BEAUFORT       PTSUNNY   66  59  78 SW16      29.71R
CEDAR ISLAND   NOT AVBL
JACKSONVILLE   PTSUNNY   72  57  59 W14       29.70R
PINEY ISLAND   NOT AVBL
WILMINGTON     FAIR      74  55  51 W16G28    29.72S


$$

NCZ011>013-027>030-043-044-078>080-089-090>093-098-252300-
COASTAL PLAIN

CITY           SKY/WX    TMP DP  RH WIND       PRES   REMARKS
AHOSKIE        LGT RAIN  65  63  91 CALM      29.70S
CLINTON        PTSUNNY   69  58  68 W7        29.75R
ELIZABETHTOWN  FAIR      71  55  56 MISG      29.75S
GOLDSBORO      PTSUNNY   70  59  68 W15       29.70R
GREENVILLE     FAIR      70  59  68 NW9G16    29.73R
HAVELOCK       PTSUNNY   72  62  71 SW9       29.70R
KENANSVILLE    FAIR      68  57  68 W10G18    29.74R
KINSTON        FAIR      72  55  56 W8        29.71R
NEW BERN       FAIR      70  56  61 W13G21    29.70R
RICHLANDS      PTSUNNY   72  58  61 W13G18    29.72R
ROCKY MOUNT    CLOUDY    67  58  72 NW10      29.72R
WASHINGTON     LGT RAIN  70  59  67 CALM      29.69R
WHITEVILLE     FAIR      73  56  53 W5        29.74S

$$

AMZ130-135-150-152-154-156-158-170-250-252-270-ANZ085-086-088-633-658-670-252300-
MARINE OBSERVATIONS

STATION/POSITION TIME  TEMP    WIND        PRES    WAVE   SWELL
                       AIR SEA DIR/SP/G            HT/PER HT/PER
                 (UTC) (F)     (DEG/KT/KT) (MB)    (FT/S) (FT/S)
CHESAPEAKE LIGHT NOT AVBL
64 E VA BEACH    2150   56 52  210/ 12/ 14 1005.2    9/10   8/10
DUCK             2200   62 52  230/  4/  6 1004.4
2 E DUCK         2200      53                N/A     6/10   3/11
OREGON INLET     2200   64 61  200/  7/ 11 1005.1
13E OREGON INLT  2118      55                N/A     7/ 9   7/ 9
HATTERAS CG      2200   67 66  220/ 14/ 19 1005.3
DIAMOND BUOY     2210   70 69  230/ 19/ 25 1006.0
CAPE LOOKOUT     2200          230/ 13/ 18 1006.2
BEAUFORT LAB     2200   65 63  230/  7/ 12 1006.0
30 SE NEW RVR IN 2208   67 67  230/ 17/ 21 1003.8
30 SE NEW RVR IN 2200      67                N/A     7/ 9   2/11
27 SE WRIGHTSVLE 2208   66 67  240/ 16/ 23 1006.9
5 SE WRIGHTSVLE  2208   66 63  230/ 12/ 17 1005.9
225 S CAPE HAT   2210   73 74  240/ 12/ 17 1009.5
41 SE CHARLESTON 2210      69  230/ 17/ 21 1008.3

$$




USA.gov is the U.S. government's official web portal to all federal, state and local government web resources and services.